Gilze-Rijen, Netherlands

2:07 PM CET on February 10, 2016 (GMT +0100)
Gilze-Rijen Air Base

Weather History for EHGR - March, 2014

Change the Weather History Date:

Thursday, March 27, 2014

  Actual Average Record
Temperature  
Mean Temperature 44 °F -  
Max Temperature 57 °F 55 °F 64 °F (2012)
Min Temperature 31 °F 39 °F 24 °F (2004)
Degree Days  
Heating Degree Days 21    
Moisture  
Dew Point 35 °F    
Average Humidity 72    
Maximum Humidity 100    
Minimum Humidity 37    
Precipitation  
Precipitation 0.00 in - - ()
Sea Level Pressure  
Sea Level Pressure 29.91 in    
Wind  
Wind Speed 5 mph ()    
Max Wind Speed 13 mph    
Max Gust Speed 34 mph    
Visibility 6.3 miles    
Events      
Averages and records for this station are not official NWS values.
T = Trace of Precipitation, MM = Missing Value Source: Averaged Metar Reports

Daily Weather History Graph

Daily Weather History Graph

Search for Another Location

Airport or City:

Trip Planner

Search our weather history database for the weather conditions in past years. The results will help you decide how hot, cold, wet, or windy it might be!

Date:

Astronomy

Mar. 27, 2014 Rise Set
Actual Time 6:27 AM CET 7:04 PM CET
Civil Twilight 5:53 AM CET 7:38 PM CET
Nautical Twilight 5:13 AM CET 8:18 PM CET
Astronomical Twilight 4:31 AM CET 9:01 PM CET
Moon 4:32 AM CET (3/27) 3:12 PM CET (3/27)
Length of Visible Light 13h 44m
Length of Day
12h 37m
Waning Crescent, 15% of the Moon is Illuminated
Mar 27
Waning Crescent
Mar 30
New
Apr 7
First Quarter
Apr 15
Full
Apr 22
Last Quarter

Hourly Weather History & Observations

Time (CET) Temp. Windchill Dew Point Humidity Pressure Visibility Wind Dir Wind Speed Gust Speed Precip Events Conditions
12:00 AM 37 °F - 34 °F 83% 29.98 in 11 mi ENE 4.5 mph - -   Overcast
12:25 AM 37.4 °F 33.8 °F 32.0 °F 81% 29.98 in 6.2 mi ENE 4.6 mph - N/A   Scattered Clouds
12:55 AM 35.6 °F 32.8 °F 32.0 °F 87% 29.95 in 6.2 mi NE 3.5 mph - N/A   Partly Cloudy
1:00 AM 36 °F - 32 °F 81% 29.98 in 8 mi NE 4.5 mph - -   Partly Cloudy
1:25 AM 35.6 °F 31.7 °F 32.0 °F 87% 29.95 in 6.2 mi NE 4.6 mph - N/A   Unknown
1:55 AM 35.6 °F 31.7 °F 32.0 °F 87% 29.95 in 5.0 mi NE 4.6 mph - N/A   Partly Cloudy
2:00 AM 35 °F - 33 °F 87% 29.96 in 5 mi NNE 4.5 mph - -   Mist
2:11 AM 35.6 °F - 32.0 °F 87% 29.95 in 4.3 mi NNE 2.3 mph - N/A   Partly Cloudy
2:25 AM 35.6 °F - 32.0 °F 87% 29.95 in 3.7 mi NNE 2.3 mph - N/A   Partly Cloudy
2:29 AM 35.6 °F 32.8 °F 32.0 °F 87% 29.95 in 5.0 mi NE 3.5 mph - N/A   Partly Cloudy
2:37 AM 35.6 °F - 32.0 °F 87% 29.95 in 4.3 mi NE 2.3 mph - N/A   Partly Cloudy
2:55 AM 33.8 °F 30.8 °F 32.0 °F 93% 29.95 in 2.8 mi NNE 3.5 mph - N/A   Partly Cloudy
2:59 AM 33.8 °F 30.8 °F 32.0 °F 93% 29.95 in 3.1 mi NNE 3.5 mph - N/A   Partly Cloudy
3:00 AM 33 °F - 31 °F 92% 29.95 in 3 mi NNE 4.5 mph - -   Mist
3:03 AM 33.8 °F 30.8 °F 32.0 °F 93% 29.95 in - NNE 3.5 mph - N/A   Partly Cloudy
3:10 AM 32.0 °F 28.7 °F 32.0 °F 100% 29.95 in 3.1 mi NNE 3.5 mph - N/A   Mist
3:19 AM 32.0 °F 28.7 °F 32.0 °F 100% 29.95 in - NNE 3.5 mph - N/A   Partly Cloudy
3:25 AM 32.0 °F 28.7 °F 32.0 °F 100% 29.95 in - NNE 3.5 mph - N/A   Mist
3:29 AM 32.0 °F 28.7 °F 30.2 °F 93% 29.95 in 3.1 mi NNE 3.5 mph - N/A   Mist
3:40 AM 32.0 °F 27.5 °F 30.2 °F 93% 29.92 in - NNE 4.6 mph - N/A   Mist
3:44 AM 32.0 °F 28.7 °F 30.2 °F 93% 29.92 in 3.1 mi NNE 3.5 mph - N/A   Mist
3:49 AM 32.0 °F 27.5 °F 30.2 °F 93% 29.92 in - NNE 4.6 mph - N/A   Mist
3:55 AM 32.0 °F 27.5 °F 32.0 °F 100% 29.92 in 2.8 mi NNE 4.6 mph - N/A   Mist
4:00 AM 32 °F - 31 °F 94% 29.94 in 3 mi NE 4.5 mph - -   Mist
4:00 AM 32.0 °F 28.7 °F 30.2 °F 93% 29.92 in 3.1 mi NE 3.5 mph - N/A   Mist
4:13 AM 32.0 °F 28.7 °F 32.0 °F 100% 29.92 in 3.1 mi NE 3.5 mph - N/A   Mist
4:25 AM 32.0 °F - 32.0 °F 100% 29.92 in 3.1 mi NE 2.3 mph - N/A   Mostly Cloudy
4:29 AM 32.0 °F 28.7 °F 32.0 °F 100% 29.92 in - NNE 3.5 mph - N/A   Mostly Cloudy
4:33 AM 32.0 °F 28.7 °F 32.0 °F 100% 29.92 in 3.7 mi NNE 3.5 mph - N/A   Overcast
4:46 AM 33.8 °F - 32.0 °F 93% 29.92 in 4.3 mi ENE 2.3 mph - N/A   Overcast
4:55 AM 33.8 °F - 32.0 °F 93% 29.92 in 4.3 mi ENE 2.3 mph - N/A   Scattered Clouds
5:00 AM 33 °F - 32 °F 93% 29.93 in 4 mi ENE 2.2 mph - -   Mist
5:25 AM 32.0 °F 28.7 °F 32.0 °F 100% 29.92 in 3.7 mi ENE 3.5 mph - N/A   Partly Cloudy
5:55 AM 35.6 °F 32.8 °F 33.8 °F 93% 29.92 in 3.7 mi NE 3.5 mph - N/A   Overcast
5:59 AM 35.6 °F 32.8 °F 32.0 °F 87% 29.92 in 5.0 mi NE 3.5 mph - N/A   Overcast
6:00 AM 34 °F - 31 °F 86% 29.93 in 4 mi NE 4.5 mph - -   Mist
6:04 AM 33.8 °F 29.6 °F 32.0 °F 93% 29.92 in 4.3 mi NE 4.6 mph - N/A   Overcast
6:25 AM 33.8 °F 29.6 °F 32.0 °F 93% 29.92 in 3.7 mi NE 4.6 mph - N/A   Overcast
6:55 AM 33.8 °F 29.6 °F 32.0 °F 93% 29.92 in 4.3 mi NE 4.6 mph - N/A   Overcast
7:00 AM 34 °F - 33 °F 92% 29.94 in 4 mi NNE 4.5 mph - -   Mist
7:25 AM 35.6 °F - 33.8 °F 93% 29.92 in 4.3 mi NE 2.3 mph - N/A   Scattered Clouds
7:35 AM 35.6 °F 32.8 °F 33.8 °F 93% 29.92 in 5.0 mi NE 3.5 mph - N/A   Partly Cloudy
7:37 AM 35.6 °F 32.8 °F 33.8 °F 93% 29.92 in 4.3 mi NE 3.5 mph - N/A   Scattered Clouds
7:55 AM 35.6 °F 31.7 °F 33.8 °F 93% 29.92 in 4.3 mi NE 4.6 mph - N/A   Mostly Cloudy
7:59 AM 37.4 °F 33.8 °F 33.8 °F 87% 29.92 in 5.0 mi NE 4.6 mph - N/A   Mostly Cloudy
8:00 AM 37 °F - 35 °F 90% 29.94 in 5 mi NE 4.5 mph - -   Mist
8:12 AM 39.2 °F 35.9 °F 35.6 °F 87% 29.92 in 5.0 mi NE 4.6 mph - N/A   Mostly Cloudy
8:25 AM 39.2 °F 35.0 °F 35.6 °F 87% 29.92 in 5.6 mi ENE 5.8 mph - N/A   Partly Cloudy
8:33 AM 41.0 °F 37.1 °F 37.4 °F 87% 29.92 in 5.0 mi ENE 5.8 mph - N/A   Partly Cloudy
8:55 AM 42.8 °F 38.0 °F 37.4 °F 81% 29.92 in 5.6 mi ENE 8.1 mph - N/A   Overcast
9:00 AM 43 °F - 37 °F 73% 29.94 in 6 mi East 8.9 mph - -   Mostly Cloudy
9:25 AM 44.6 °F 39.7 °F 37.4 °F 76% 29.92 in 6.2 mi ENE 9.2 mph - N/A   Mostly Cloudy
9:55 AM 44.6 °F 39.7 °F 37.4 °F 76% 29.92 in 6.2 mi East 9.2 mph - N/A   Partly Cloudy
10:00 AM 46 °F - 37 °F 62% 29.94 in 8 mi East 8.9 mph - -   Scattered Clouds
10:25 AM 46.4 °F 42.4 °F 37.4 °F 71% 29.92 in 6.2 mi East 8.1 mph - N/A   Mostly Cloudy
10:55 AM 50.0 °F - 37.4 °F 62% 29.92 in 6.2 mi East 8.1 mph - N/A   Partly Cloudy
11:00 AM 50 °F - 37 °F 50% 29.92 in 11 mi East 6.7 mph - -   Scattered Clouds
11:25 AM 51.8 °F - 37.4 °F 58% 29.92 in 6.2 mi East 9.2 mph - N/A   Scattered Clouds
11:55 AM 51.8 °F - 35.6 °F 54% 29.89 in 6.2 mi ESE 6.9 mph - N/A   Mostly Cloudy
12:00 PM 53 °F - 37 °F 43% 29.91 in 12 mi ESE 6.7 mph - -   Mostly Cloudy
12:25 PM 53.6 °F - 37.4 °F 54% 29.89 in 6.2 mi East 8.1 mph - N/A   Mostly Cloudy
12:28 PM 51.8 °F - 37.4 °F 58% 29.89 in 6.2 mi East 10.4 mph - N/A   Mostly Cloudy
12:55 PM 53.6 °F - 37.4 °F 54% 29.89 in 6.2 mi ESE 6.9 mph - N/A   Mostly Cloudy
1:00 PM 54 °F - 37 °F 41% 29.91 in 12 mi East 6.7 mph - -   Partly Cloudy
1:25 PM 55.4 °F - 37.4 °F 51% 29.89 in 6.2 mi East 11.5 mph - N/A   Scattered Clouds
1:51 PM 53.6 °F - 37.4 °F 54% 29.89 in 6.2 mi East 9.2 mph - N/A   Mostly Cloudy
1:55 PM 53.6 °F - 37.4 °F 54% 29.89 in 6.2 mi East 9.2 mph - N/A   Mostly Cloudy
2:00 PM 55 °F - 37 °F 38% 29.89 in 12 mi East 8.9 mph - -   Partly Cloudy
2:25 PM 55.4 °F - 37.4 °F 51% 29.86 in 6.2 mi SE 6.9 mph - N/A   Mostly Cloudy
2:55 PM 55.4 °F - 37.4 °F 51% 29.86 in 6.2 mi ESE 8.1 mph - N/A   Mostly Cloudy
3:00 PM 55 °F - 36 °F 37% 29.88 in 12 mi ESE 8.9 mph - -   Partly Cloudy
3:25 PM 55.4 °F - 37.4 °F 51% 29.86 in 6.2 mi East 8.1 mph - N/A   Mostly Cloudy
3:55 PM 57.2 °F - 37.4 °F 48% 29.86 in 6.2 mi East 9.2 mph - N/A   Mostly Cloudy
4:00 PM 56 °F - 37 °F 37% 29.87 in 13 mi East 8.9 mph - -   Partly Cloudy
4:25 PM 55.4 °F - 35.6 °F 47% 29.86 in 6.2 mi ESE 5.8 mph - N/A   Overcast
4:29 PM 57.2 °F - 37.4 °F 48% 29.86 in 6.2 mi East 6.9 mph - N/A   Mostly Cloudy
4:55 PM 55.4 °F - 37.4 °F 51% 29.86 in 6.2 mi East 9.2 mph - N/A   Mostly Cloudy
5:00 PM 55 °F - 37 °F 39% 29.87 in 11 mi East 8.9 mph - -   Partly Cloudy
5:25 PM 55.4 °F - 37.4 °F 51% 29.86 in 6.2 mi ENE 10.4 mph - N/A   Unknown
5:46 PM 55.4 °F - 37.4 °F 51% 29.86 in 6.2 mi East 10.4 mph - N/A   Partly Cloudy
5:55 PM 55.4 °F - 37.4 °F 51% 29.86 in 6.2 mi East 11.5 mph - N/A   Scattered Clouds
6:00 PM 54 °F - 38 °F 43% 29.87 in 10 mi ENE 8.9 mph - -   Scattered Clouds
6:25 PM 53.6 °F - 37.4 °F 54% 29.86 in 6.2 mi East 8.1 mph - N/A   Unknown
6:55 PM 53.6 °F - 37.4 °F 54% 29.86 in 6.2 mi ENE 6.9 mph - N/A   Overcast
7:00 PM 51 °F - 39 °F 52% 29.87 in 11 mi NE 6.7 mph - -   Partly Cloudy
7:25 PM 51.8 °F - 37.4 °F 58% 29.86 in 6.2 mi ENE 8.1 mph - N/A   Overcast
7:30 PM 51.8 °F - 37.4 °F 58% 29.86 in 6.2 mi ENE 8.1 mph 24.2 mph N/A   Scattered Clouds
7:55 PM 51.8 °F - 37.4 °F 58% 29.86 in 6.2 mi ENE 9.2 mph 34.5 mph N/A   Scattered Clouds
8:00 PM 53 °F - 37 °F 42% 29.88 in 14 mi East 8.9 mph - -   Scattered Clouds
8:25 PM 50.0 °F - 35.6 °F 58% 29.86 in 6.2 mi ENE 10.4 mph 28.8 mph N/A   Unknown
8:55 PM 51.8 °F - 35.6 °F 54% 29.89 in 6.2 mi East 10.4 mph 24.2 mph N/A   Unknown
9:00 PM 51 °F - 36 °F 46% 29.90 in 16 mi East 8.9 mph - -   Scattered Clouds
9:25 PM 51.8 °F - 35.6 °F 54% 29.89 in 6.2 mi East 12.7 mph 28.8 mph N/A   Overcast
9:55 PM 51.8 °F - 35.6 °F 54% 29.89 in 6.2 mi East 11.5 mph - N/A   Mostly Cloudy
10:00 PM 50 °F - 36 °F 47% 29.91 in 18 mi East 8.9 mph - -   Mostly Cloudy
10:07 PM 50.0 °F - 35.6 °F 58% 29.89 in 6.2 mi East 8.1 mph - N/A   Unknown
10:25 PM 48.2 °F - 35.6 °F 62% 29.89 in 6.2 mi East 8.1 mph - N/A   Mostly Cloudy
10:55 PM 48.2 °F - 35.6 °F 62% 29.92 in 6.2 mi South 2.3 mph - N/A   Overcast
11:00 PM 48 °F - 35 °F 50% 29.92 in 12 mi Calm Calm - -   Overcast
11:25 PM 48.2 °F - 35.6 °F 62% 29.92 in 6.2 mi SE 2.3 mph - N/A   Mostly Cloudy
11:55 PM 46.4 °F - 35.6 °F 66% 29.92 in 6.2 mi ESE 2.3 mph - N/A   Scattered Clouds